User: anonymous   Login
Location: Unspecified
(0.0000°N, 0.0000°E)
Time: 13:10:38
(UTC+00:00)
Language:

USA 179 - Orbit

View from above orbital plane
View from above orbital plane
View from above satellite
View from above satellite

Ground track
Ground track

The orbit data is extracted from the following two-line orbital elements,

1 28384U 04034A   20355.63302333 0.00000000  00000-0  00000-0 0    07
2 28384  63.7068 144.2383 7105305 268.5198  16.6007  2.00616600    03
Epoch (UTC): 20 December 2020 15:11:33
Eccentricity: 0.7105305
inclination: 63.7068°
perigee height: 1309 km
apogee height: 39046 km
right ascension of ascending node: 144.2383°
argument of perigee: 268.5198°
revolutions per day: 2.00616600
mean anomaly at epoch: 16.6007°
orbit number at epoch: 0

The dashed part of the orbit path shows where the satellite is in the earth's shadow,  

DLR